CW8046 Weather Reports


Display with metric or nautical units.
time (UTC)temp
F
wind
direction
speed
MPH
gust
MPH
rain 1hr
in
rain 24hr
in
rain mn
in
humidity
%
barometer
mb
20260509013411 64 277 0.0 0.0 0.00 0.00 0.00 72 1014.8
20260509012905 64 277 0.0 0.0 0.00 0.00 0.00 72 1015.1
20260509012405 64 277 0.0 0.0 0.00 0.00 0.00 71 1015.1
20260509011902 64 277 0.0 0.0 0.00 0.00 0.00 71 1015.0
20260509011402 65 277 0.0 0.0 0.00 0.00 0.00 70 1014.8
20260509010904 65 277 0.0 0.0 0.00 0.00 0.00 69 1015.1
20260509010625 65 277 0.0 0.0 0.00 0.00 0.00 68 1015.2
20260509010120 65 277 0.0 0.0 0.00 0.00 0.00 68 1015.0
20260509005400 66 277 0.0 0.0 0.00 0.00 0.00 68 1014.8
20260509004859 66 277 0.0 0.0 0.00 0.00 0.00 67 1014.9
20260509004358 66 277 0.0 0.0 0.00 0.00 0.00 66 1014.6
20260509003858 67 277 0.0 0.0 0.00 0.00 0.00 65 1014.5
20260509003359 67 277 0.0 0.0 0.00 0.00 0.00 65 1014.6
20260509002857 67 277 0.0 0.0 0.00 0.00 0.00 65 1014.7
20260509002357 67 277 0.0 1.0 0.00 0.00 0.00 64 1014.6
20260509001856 68 277 0.0 1.0 0.00 0.00 0.00 63 1014.8
20260509001844 68 47 0.0 0.0 0.00 0.00 0.00 62 1014.8
20260509000856 68 47 0.0 0.0 0.00 0.00 0.00 60 1014.6
20260509000352 69 47 0.0 0.0 0.00 0.00 0.00 60 1014.4
20260508235844 69 47 0.0 0.0 0.00 0.00 0.00 58 1014.3
20260508235555 69 47 0.0 1.0 0.00 0.00 0.00 58 1014.2
20260508234832 69 47 0.0 1.0 0.00 0.00 0.00 58 1014.2
20260508234325 69 47 0.0 1.0 0.00 0.00 0.00 57 1014.0
20260508233822 69 47 0.0 1.0 0.00 0.00 0.00 56 1014.2
20260508233323 70 47 0.0 1.0 0.00 0.00 0.00 56 1014.3
20260508232820 70 213 0.0 0.0 0.00 0.00 0.00 56 1014.5
20260508232322 70 213 0.0 0.0 0.00 0.00 0.00 55 1014.5
20260508231822 70 213 0.0 1.0 0.00 0.00 0.00 54 1014.5
20260508231319 70 213 0.0 1.0 0.00 0.00 0.00 53 1014.4
20260508230820 71 213 0.0 2.0 0.00 0.00 0.00 53 1014.3
20260508230539 71 213 0.0 3.0 0.00 0.00 0.00 51 1014.2
20260508225819 71 213 1.0 3.0 0.00 0.00 0.00 51 1014.2
20260508225539 71 206 1.0 3.0 0.00 0.00 0.00 51 1014.3
20260508224817 71 224 1.0 3.0 0.00 0.00 0.00 50 1014.3
20260508224319 71 159 1.0 3.0 0.00 0.00 0.00 50 1014.2
20260508223817 71 205 2.0 3.0 0.00 0.00 0.00 49 1014.3
20260508223536 71 166 1.0 4.0 0.00 0.00 0.00 49 1014.4
20260508223050 71 209 1.0 4.0 0.00 0.00 0.00 51 1014.4
20260508222315 71 243 1.0 3.0 0.00 0.00 0.00 51 1014.4
20260508221815 72 297 1.0 3.0 0.00 0.00 0.00 50 1014.4
20260508221527 72 294 1.0 3.0 0.00 0.00 0.00 50 1014.5
20260508220801 72 253 1.0 4.0 0.00 0.00 0.00 50 1014.5
20260508220516 72 167 2.0 5.0 0.00 0.00 0.00 50 1014.4
20260508215750 72 225 2.0 7.0 0.00 0.00 0.00 50 1014.5
20260508215244 73 215 2.0 7.0 0.00 0.00 0.00 50 1014.4
20260508214737 73 307 1.0 4.0 0.00 0.00 0.00 50 1014.3
20260508214231 73 269 2.0 4.0 0.00 0.00 0.00 49 1014.3
20260508213725 73 208 2.0 6.0 0.00 0.00 0.00 47 1014.2
20260508213219 74 237 1.0 6.0 0.00 0.00 0.00 46 1014.3
20260508212714 74 202 1.0 4.0 0.00 0.00 0.00 45 1014.3
20260508212209 74 166 1.0 4.0 0.00 0.00 0.00 44 1014.3
20260508211709 74 280 2.0 5.0 0.00 0.00 0.00 44 1014.2
20260508211213 74 227 2.0 5.0 0.00 0.00 0.00 44 1014.2
20260508210707 74 51 2.0 7.0 0.00 0.00 0.00 43 1014.2
20260508210208 74 250 1.0 7.0 0.00 0.00 0.00 45 1014.2
20260508205708 74 245 2.0 7.0 0.00 0.00 0.00 44 1014.3
20260508205425 74 204 3.0 8.0 0.00 0.00 0.00 42 1014.2
20260508204702 75 236 2.0 8.0 0.00 0.00 0.00 43 1014.3
20260508204426 75 126 2.0 6.0 0.00 0.00 0.00 43 1014.3
20260508203700 75 94 2.0 6.0 0.00 0.00 0.00 42 1014.3
20260508203158 74 263 2.0 4.0 0.00 0.00 0.00 41 1014.4
20260508202656 74 98 2.0 7.0 0.00 0.00 0.00 41 1014.5
20260508202157 74 263 2.0 7.0 0.00 0.00 0.00 42 1014.5
20260508201657 74 252 2.0 7.0 0.00 0.00 0.00 42 1014.6
20260508201158 74 128 3.0 7.0 0.00 0.00 0.00 43 1014.6
20260508200654 74 42 2.0 5.0 0.00 0.00 0.00 42 1014.7
20260508200413 74 55 3.0 11.0 0.00 0.00 0.00 40 1014.6
20260508195655 75 92 3.0 11.0 0.00 0.00 0.00 38 1014.7
20260508195153 75 29 2.0 7.0 0.00 0.00 0.00 41 1014.7
20260508194915 74 218 2.0 5.0 0.00 0.00 0.00 40 1014.8
20260508194155 74 63 2.0 5.0 0.00 0.00 0.00 41 1014.9
20260508193653 73 114 4.0 12.0 0.00 0.00 0.00 41 1014.9
20260508193152 74 76 4.0 12.0 0.00 0.00 0.00 39 1014.9
20260508192654 74 49 4.0 8.0 0.00 0.00 0.00 41 1014.8
20260508192149 75 344 2.0 8.0 0.00 0.00 0.00 39 1015.0
20260508191649 75 53 2.0 5.0 0.00 0.00 0.00 40 1015.1
20260508191150 75 70 3.0 8.0 0.00 0.00 0.00 42 1015.2
20260508190911 74 258 2.0 8.0 0.00 0.00 0.00 41 1015.0
20260508190148 74 138 2.0 6.0 0.00 0.00 0.00 41 1015.1
20260508185917 73 175 2.0 5.0 0.00 0.00 0.00 40 1015.5
20260508185150 73 58 3.0 7.0 0.00 0.00 0.00 40 1015.7
20260508184648 73 157 3.0 7.0 0.00 0.00 0.00 39 1015.9
20260508184150 73 96 2.0 6.0 0.00 0.00 0.00 40 1015.9
20260508183645 73 139 2.0 4.0 0.00 0.00 0.00 40 1016.0
20260508183146 73 259 2.0 4.0 0.00 0.00 0.00 42 1016.0
20260508182647 72 351 3.0 5.0 0.00 0.00 0.00 42 1015.9
20260508182146 72 53 3.0 5.0 0.00 0.00 0.00 41 1016.0
20260508181647 72 14 3.0 9.0 0.00 0.00 0.00 41 1016.1
20260508181146 72 78 3.0 9.0 0.00 0.00 0.00 40 1016.2
20260508180647 73 337 3.0 8.0 0.00 0.00 0.00 40 1016.4
20260508180145 73 123 3.0 8.0 0.00 0.00 0.00 41 1016.3
20260508175646 73 213 3.0 10.0 0.00 0.00 0.00 43 1016.2
20260508175141 73 94 4.0 10.0 0.00 0.00 0.00 40 1016.1
20260508174642 73 26 3.0 8.0 0.00 0.00 0.00 41 1016.1
20260508174143 74 317 2.0 7.0 0.00 0.00 0.00 39 1016.2
20260508173901 73 76 2.0 6.0 0.00 0.00 0.00 42 1016.3
20260508173143 73 76 2.0 6.0 0.00 0.00 0.00 40 1016.5
20260508172910 73 163 2.0 6.0 0.00 0.00 0.00 41 1016.6
20260508172400 73 5 3.0 7.0 0.00 0.00 0.00 41 1016.6
20260508171641 73 72 3.0 7.0 0.00 0.00 0.00 40 1016.7
20260508171143 73 91 3.0 9.0 0.00 0.00 0.00 41 1016.8
20260508170641 73 83 3.0 9.0 0.00 0.00 0.00 42 1016.8
20260508170141 73 49 3.0 9.0 0.00 0.00 0.00 41 1016.8
20260508165642 73 64 3.0 9.0 0.00 0.00 0.00 41 1017.0
20260508165142 72 125 3.0 9.0 0.00 0.00 0.00 46 1017.0
20260508164901 71 96 3.0 8.0 0.00 0.00 0.00 42 1017.2
20260508164142 71 5 3.0 8.0 0.00 0.00 0.00 43 1017.4
20260508163643 71 49 5.0 12.0 0.00 0.00 0.00 43 1017.3
20260508163140 71 63 4.0 12.0 0.00 0.00 0.00 44 1017.6
20260508162856 71 40 3.0 10.0 0.00 0.00 0.00 45 1017.4
20260508162631 70 219 3.0 9.0 0.00 0.00 0.00 45 1017.4
20260508161641 70 5 3.0 9.0 0.00 0.01 0.00 45 1017.6
20260508161141 70 221 4.0 11.0 0.00 0.01 0.00 44 1017.4
20260508160641 70 104 4.0 11.0 0.00 0.01 0.00 44 1017.6
20260508160141 70 61 4.0 9.0 0.00 0.03 0.00 46 1017.6
20260508155641 69 0 4.0 9.0 0.00 0.05 0.00 47 1017.6
20260508155141 69 55 4.0 7.0 0.00 0.06 0.00 46 1017.6
20260508154641 69 52 4.0 9.0 0.00 0.06 0.00 46 1017.8
20260508154141 69 342 4.0 9.0 0.00 0.06 0.00 46 1017.9
20260508153642 69 62 3.0 7.0 0.00 0.06 0.00 47 1017.9
20260508153143 69 74 3.0 7.0 0.00 0.06 0.00 46 1018.1
20260508152640 68 61 4.0 11.0 0.00 0.06 0.00 46 1018.0
20260508152628 68 123 4.0 11.0 0.00 0.07 0.00 46 1018.1
20260508151637 68 69 4.0 9.0 0.00 0.08 0.00 45 1018.1
20260508151138 68 66 4.0 10.0 0.00 0.08 0.00 45 1018.1
20260508150635 68 44 5.0 11.0 0.00 0.10 0.00 44 1018.1
20260508150135 68 53 4.0 11.0 0.00 0.11 0.00 45 1018.1
20260508145635 68 65 4.0 9.0 0.00 0.26 0.00 43 1018.0
20260508145135 69 39 3.0 9.0 0.00 0.31 0.00 46 1018.1
20260508144636 68 39 4.0 9.0 0.00 0.41 0.00 46 1018.1
20260508144136 68 64 5.0 12.0 0.00 0.48 0.00 44 1018.2
20260508143633 68 42 6.0 12.0 0.00 0.55 0.00 45 1018.3
20260508143134 68 64 5.0 12.0 0.00 0.57 0.00 45 1018.3
20260508142633 67 13 6.0 14.0 0.00 0.58 0.00 45 1018.2
20260508142134 67 9 6.0 14.0 0.00 0.58 0.00 45 1018.2
20260508141634 68 40 4.0 11.0 0.00 0.59 0.00 47 1018.2
20260508141351 67 56 4.0 10.0 0.00 0.59 0.00 48 1018.3
20260508140634 67 45 5.0 13.0 0.00 0.60 0.00 50 1018.3
20260508140135 67 46 5.0 14.0 0.00 0.60 0.00 49 1018.2
20260508135632 67 54 6.0 14.0 0.00 0.62 0.00 49 1018.2
20260508135133 67 76 6.0 12.0 0.00 0.64 0.00 48 1018.3
20260508134633 67 86 5.0 10.0 0.00 0.64 0.00 48 1018.2
20260508134135 67 35 4.0 10.0 0.00 0.65 0.00 50 1018.3
20260508133633 66 51 4.0 10.0 0.00 0.66 0.00 54 1018.2
20260508133133 66 71 5.0 12.0 0.00 0.67 0.00 52 1018.1
20260508132852 65 49 5.0 12.0 0.00 0.69 0.00 53 1018.1
20260508132133 65 338 5.0 12.0 0.00 0.70 0.00 57 1018.0
20260508131631 64 30 7.0 14.0 0.00 0.70 0.00 56 1017.9
20260508131357 64 59 7.0 14.0 0.00 0.70 0.00 56 1017.7
20260508130627 64 69 6.0 12.0 0.00 0.70 0.00 60 1017.6
20260508130127 63 57 5.0 12.0 0.00 0.70 0.00 63 1017.7
20260508125628 63 94 4.0 9.0 0.00 0.70 0.00 63 1017.7
20260508125128 62 61 4.0 9.0 0.00 0.70 0.00 65 1017.6
20260508124627 62 71 4.0 11.0 0.00 0.70 0.00 66 1017.4
20260508124127 62 65 4.0 11.0 0.00 0.70 0.00 65 1017.3
20260508123627 62 78 5.0 14.0 0.00 0.70 0.00 66 1017.3
20260508123348 62 42 5.0 14.0 0.00 0.70 0.00 66 1017.2
20260508122845 62 14 4.0 9.0 0.00 0.70 0.00 70 1017.1
20260508122128 61 41 4.0 9.0 0.00 0.70 0.00 71 1017.1
20260508121629 61 47 4.0 10.0 0.00 0.70 0.00 75 1017.0
20260508121348 60 36 3.0 9.0 0.00 0.70 0.00 79 1016.9
20260508121227 60 54 3.0 10.0 0.00 0.70 0.00 77 1016.9
20260508120127 59 60 2.0 6.0 0.00 0.70 0.00 80 1016.9
20260508115627 58 69 2.0 6.0 0.00 0.70 0.00 82 1016.8
20260508115129 57 59 2.0 6.0 0.00 0.70 0.00 83 1016.7
20260508114628 57 59 1.0 3.0 0.00 0.70 0.00 83 1016.7
20260508114122 56 63 0.0 2.0 0.00 0.70 0.00 83 1016.6
20260508113616 55 33 0.0 1.0 0.00 0.70 0.00 83 1016.5
20260508113111 55 33 0.0 1.0 0.00 0.70 0.00 82 1016.3
20260508112604 54 17 0.0 1.0 0.00 0.70 0.00 82 1016.3
20260508112059 54 17 0.0 0.0 0.00 0.70 0.00 82 1016.2
20260508111815 54 17 0.0 0.0 0.00 0.70 0.00 82 1016.3
20260508111047 54 200 0.0 0.0 0.00 0.70 0.00 82 1016.2
20260508110806 54 261 0.0 0.0 0.00 0.70 0.00 81 1016.2
20260508110034 54 261 0.0 0.0 0.00 0.71 0.00 81 1016.1
20260508105528 54 261 0.0 0.0 0.00 0.71 0.00 81 1015.9
20260508105023 54 261 0.0 0.0 0.00 0.71 0.00 81 1015.8
20260508104518 55 287 0.0 0.0 0.00 0.72 0.00 81 1015.8
20260508104010 55 271 0.0 0.0 0.00 0.73 0.00 81 1015.8
20260508103504 55 21 0.0 0.0 0.00 0.74 0.00 81 1015.6
20260508103001 55 44 0.0 0.0 0.00 0.74 0.00 81 1015.5
20260508102501 55 44 0.0 0.0 0.00 0.74 0.00 81 1015.5
20260508102002 55 44 0.0 0.0 0.00 0.74 0.00 81 1015.4
20260508101459 55 44 0.0 0.0 0.00 0.74 0.00 81 1015.4
20260508101000 55 44 0.0 0.0 0.00 0.74 0.00 81 1015.4
20260508100501 55 44 0.0 0.0 0.00 0.75 0.00 81 1015.4
20260508095957 55 44 0.0 0.0 0.00 0.78 0.00 81 1015.2
20260508095457 55 44 0.0 0.0 0.00 0.82 0.00 81 1015.1
20260508094956 55 44 0.0 0.0 0.00 0.83 0.00 81 1015.0
20260508094455 55 44 0.0 0.0 0.00 0.83 0.00 81 1014.9
20260508093955 55 44 0.0 0.0 0.00 0.83 0.00 81 1014.8
20260508093453 55 44 0.0 0.0 0.00 0.83 0.00 81 1014.8
20260508092950 55 44 0.0 0.0 0.00 0.83 0.00 80 1014.7
20260508092449 55 44 0.0 0.0 0.00 0.84 0.00 80 1014.8
20260508091945 55 44 0.0 1.0 0.00 0.84 0.00 80 1014.7
20260508091659 55 44 0.0 1.0 0.00 0.84 0.00 79 1014.6
20260508090944 55 44 0.0 0.0 0.00 0.84 0.00 79 1014.6
20260508090701 55 44 0.0 0.0 0.00 0.84 0.00 79 1014.5
20260508085942 56 44 0.0 0.0 0.00 0.85 0.00 79 1014.5
20260508085443 56 44 0.0 0.0 0.00 0.87 0.00 79 1014.6
20260508084937 56 44 0.0 0.0 0.00 0.88 0.00 78 1014.6
20260508084430 56 44 0.0 0.0 0.00 0.90 0.00 78 1014.5
20260508083925 56 44 0.0 0.0 0.00 0.91 0.00 78 1014.4
20260508083425 56 44 0.0 0.0 0.00 0.92 0.00 78 1014.4
20260508082921 56 44 0.0 0.0 0.00 0.93 0.00 78 1014.3
20260508082439 56 44 0.0 0.0 0.00 0.94 0.00 78 1014.3
20260508081919 56 44 0.0 0.0 0.00 0.96 0.00 78 1014.3
20260508081416 56 44 0.0 0.0 0.00 0.97 0.00 78 1014.4
20260508080913 57 44 0.0 0.0 0.00 0.98 0.00 78 1014.3
20260508080411 57 44 0.0 0.0 0.00 0.99 0.00 77 1014.2
20260508080350 57 44 0.0 0.0 0.00 0.99 0.00 77 1014.3
20260508075411 57 44 0.0 0.0 0.00 1.00 0.00 77 1014.4
20260508074910 57 44 0.0 1.0 0.00 1.00 0.00 77 1014.4
20260508074406 57 44 0.0 1.0 0.00 1.00 0.00 77 1014.3
20260508073906 57 44 0.0 4.0 0.00 1.01 0.00 77 1014.2
20260508073404 57 44 1.0 5.0 0.00 1.01 0.00 77 1014.3
20260508072904 57 228 1.0 5.0 0.00 1.02 0.00 77 1014.4
20260508072404 57 258 0.0 4.0 0.00 1.03 0.00 77 1014.4
20260508071903 58 227 0.0 0.0 0.00 1.04 0.00 77 1014.3
20260508071403 58 227 0.0 1.0 0.00 1.05 0.00 76 1014.4
20260508071114 58 227 0.0 1.0 0.00 1.06 0.00 76 1014.4
20260508070352 58 227 0.0 2.0 0.00 1.06 0.00 76 1014.3
20260508065846 58 227 0.0 2.0 0.00 1.06 0.00 75 1014.3
20260508065341 59 227 0.0 3.0 0.00 1.06 0.00 75 1014.2
20260508064835 59 227 1.0 3.0 0.00 1.06 0.00 75 1014.0
20260508064328 59 227 0.0 2.0 0.00 1.06 0.00 74 1013.9
20260508063822 60 227 0.0 0.0 0.00 1.06 0.00 73 1013.9
20260508063316 60 227 0.0 0.0 0.00 1.06 0.00 73 1013.9
20260508062810 60 227 0.0 0.0 0.00 1.06 0.00 73 1014.0
20260508062311 60 227 0.0 2.0 0.00 1.06 0.00 72 1014.0
20260508061807 60 227 1.0 3.0 0.00 1.06 0.00 72 1014.1
20260508061307 60 219 1.0 3.0 0.00 1.06 0.00 72 1014.0
20260508061029 60 255 1.0 3.0 0.00 1.06 0.00 72 1014.1
20260508060306 61 255 1.0 3.0 0.00 1.06 0.00 72 1014.1
20260508055805 61 278 1.0 4.0 0.00 1.06 0.00 72 1014.1
20260508055306 61 273 0.0 4.0 0.00 1.06 0.00 71 1014.0
20260508054805 61 246 0.0 3.0 0.00 1.06 0.00 71 1013.9
20260508054303 61 246 1.0 4.0 0.00 1.06 0.00 71 1014.2
20260508053756 61 255 1.0 4.0 0.00 1.06 0.00 71 1014.1
20260508053251 62 254 1.0 3.0 0.00 1.06 0.00 71 1014.0
20260508053006 62 252 1.0 3.0 0.00 1.06 0.00 71 1014.0
20260508052714 62 244 2.0 4.0 0.00 1.06 0.00 70 1013.9
20260508051732 62 289 1.0 4.0 0.00 1.06 0.00 70 1014.1
20260508051226 62 262 1.0 3.0 0.00 1.06 0.00 70 1014.1
20260508050724 63 262 1.0 4.0 0.00 1.06 0.00 70 1014.0
20260508050221 63 260 1.0 4.0 0.00 1.06 0.00 69 1013.9
20260508045720 63 297 1.0 4.0 0.00 1.06 0.00 69 1013.9
20260508045220 63 236 1.0 4.0 0.00 1.06 0.00 69 1014.0
20260508045158 63 265 1.0 4.0 0.00 1.06 0.00 68 1014.0
20260508044217 64 260 1.0 3.0 0.00 1.06 0.00 68 1013.9
20260508043715 64 248 2.0 4.0 0.00 1.06 0.00 68 1013.9
20260508043215 64 230 2.0 4.0 0.00 1.06 0.00 68 1014.0
20260508042717 64 242 2.0 4.0 0.00 1.06 0.00 68 1013.9
20260508042213 64 243 1.0 3.0 0.00 1.06 0.00 67 1013.7
20260508041718 65 306 1.0 4.0 0.00 1.06 0.00 67 1013.9
20260508041213 65 267 1.0 4.0 0.00 1.06 0.00 67 1013.8
20260508040936 65 269 1.0 4.0 0.00 1.06 0.00 67 1013.7
20260508040212 65 298 2.0 6.0 0.00 1.06 0.00 67 1013.7
20260508035712 65 318 2.0 6.0 0.00 1.06 1.06 67 1013.6
20260508035434 65 276 2.0 4.0 0.00 1.06 1.06 67 1013.6
20260508034712 65 292 2.0 7.0 0.00 1.06 1.06 67 1013.6
20260508034207 66 292 2.0 7.0 0.00 1.06 1.06 67 1013.6
20260508033708 66 262 2.0 7.0 0.00 1.06 1.06 67 1013.5
20260508033209 66 205 2.0 4.0 0.00 1.06 1.06 67 1013.5
20260508032706 66 273 2.0 4.0 0.00 1.06 1.06 66 1013.6
20260508032207 67 302 2.0 5.0 0.00 1.06 1.06 66 1013.5
20260508031708 67 250 3.0 8.0 0.00 1.06 1.06 66 1013.5
20260508031434 67 277 3.0 8.0 0.00 1.06 1.06 65 1013.6
20260508030710 67 272 3.0 8.0 0.00 1.06 1.06 65 1013.6
20260508030209 67 236 3.0 8.0 0.00 1.06 1.06 64 1013.7
20260508025707 68 237 3.0 8.0 0.00 1.06 1.06 64 1013.5
20260508025209 68 269 3.0 8.0 0.00 1.06 1.06 64 1013.4
20260508024714 68 241 4.0 12.0 0.00 1.06 1.06 63 1013.2
20260508024207 68 219 5.0 13.0 0.00 1.06 1.06 63 1013.2
20260508023707 68 271 4.0 13.0 0.00 1.06 1.06 63 1013.2
20260508023430 69 296 5.0 11.0 0.00 1.06 1.06 64 1013.0
20260508022708 69 187 5.0 13.0 0.00 1.06 1.06 64 1012.9
20260508022426 69 275 5.0 13.0 0.00 1.06 1.06 65 1012.8
20260508021934 69 153 5.0 13.0 0.00 1.06 1.06 64 1012.7
20260508021207 69 275 6.0 13.0 0.00 1.06 1.06 65 1012.8
20260508020703 70 225 5.0 13.0 0.00 1.06 1.06 65 1012.7
20260508020204 70 241 5.0 13.0 0.00 1.06 1.06 66 1012.6
20260508015933 70 267 4.0 11.0 0.00 1.06 1.06 66 1012.5
20260508015203 70 251 3.0 10.0 0.00 1.06 1.06 66 1012.3
20260508014703 71 248 3.0 10.0 0.00 1.06 1.06 66 1012.3
20260508014202 71 252 3.0 13.0 0.00 1.06 1.06 66 1012.2
20260508013704 71 285 4.0 13.0 0.00 1.06 1.06 66 1012.1